Погода в Анжере

Франция     47°28′10″N   0°32′55″E
темп.,
°C
ветер,
м/с
пор.,
м/с
влажн.,
%
обл.,
%
осадки,
мм/ч
давл.,
гПа
погр.,
м
5 мая, ср
ср523:00+8сз3895100 0.0 1012235
02:00+4з410931 0.1 1013227
05:00+2зюз410940 0.0 1013183
08:00+4зюз411915 0.0 1015274
11:00+10з686098 0.1 10161601
14:00+11зсз6856100 0.1 10161460
17:00+12з5849100 0.0 10151221
20:00+11з6861100 0.0 1015842
6 мая, чт
чт623:00+7юз4873100 0.0 1015185
02:00+8юз3771100 0.0 1013225
05:00+7юв3696100 0.9 1010216
08:00+8ю61497100 3.3 1007581
11:00+12зюз91492100 3.3 1006979
14:00+16з111865100 4.3 10061855
17:00+16з10155787 0.0 10071892
20:00+13з81273100 0.1 10091112
7 мая, пт
пт723:00+9ссз3583100 0.1 1012316
02:00+8ссз238189 0.1 1013154
05:00+7с238061 0.0 101484
08:00+6с238351 0.0 1016100
11:00+11ссз116397 0.0 1017735
14:00+14з3455100 0.0 10181631
17:00+14з1255100 0.0 10171242
20:00+13в2267100 0.0 101736
8 мая, сб
сб823:00+9юв3578100 0.0 101882
02:00+9ююв3787100 0.0 1016146
05:00+11ююв497999 0.0 1014349
08:00+13ю41087100 0.0 1013650
11:00+17ююз797067 0.0 10121050
14:00+20юз710565 0.0 10111658
17:00+22ююз7953100 0.0 10091591
20:00+20ююз2274100 0.0 100751
9 мая, вс
вс923:00+16юв2289100 0.0 100517
02:00+14вюв4109594 1.3 1003213
05:00+14ююв61688100 0.2 1000536
08:00+16ю9198089 0.3 999590
11:00+20ю101465100 0.0 9991014
14:00+23ююз101751100 0.0 9992367
17:00+21юз71352100 0.0 9991950
20:00+16зюз5870100 0.1 1001739